Location: Borz?cin
(51.1714°N, 19.6030°E)
Time: 07:08:48
(UTC+00:00)

H-2A R/B - Pass Details

Date: 19 May 2025
Orbit: 555 x 622 km, 98.4° (Epoch: 16 June)

Event Time Altitude Azimuth Distance (km) Brightness Sun altitude
Rises 23:25:33 0° 30° (NNE) 2,823 6.8 -18.1°
Reaches altitude 10° 23:28:34 10° 53° (NE) 1,901 5.3 -18.0°
Maximum altitude 23:30:59 15° 89° (E) 1,579 4.3 -17.9°
Drops below altitude 10° 23:33:22 10° 126° (SE) 1,870 4.3 -17.8°
Enters shadow 23:33:24 10° 126° (SE) 1,879 4.3 -17.8°
